STARLINK-32615, 62034

Orbit data source: Space-Track

STARLINK-32615, 62034 is a payload satellite owned by SpaceX/Seattle (US) in LEO that was launched on Thu, 21 Nov 2024 UTC via an FALCON 9 launch vehicle from the Air Force Eastern Test Range (AFETR). Payloads include a variety of satellites, spacecraft, and rockets equipped with specific instruments for various scientific and technological missions. These include communications satellites like Starlink; space stations such as the ISS; scientific satellites like the Hubble; Earth observation satellites from companies like Planet Labs, Umbra, and HawkEye 360; GPS; miniature CubeSats for education and research; and military/defense satellites.

Loading next visibility...
STARLINK-32615 details
Identifier
62034, 2024-216C
Orbit
LEO
Last TLE update9 hours ago
Origin
Flag of USSpaceX/Seattle (US)
ManufacturerSpaceX/Seattle
MissionOperational spacecraft
Bus & MotorSTARLINK V2M, Unknown motor
Mass730 kg wet, ~700 kg dry
Launch date (UTC)
2024-11-21 (1 month ago)
Launch vehicle
FALCON 9
Launch site
Air Force Eastern Test Range (AFETR)
Object type
Payload
Rocket body
Debris
Shape & HBRUnknown
Radar Cross SectionLarge (>1 m²)

Expand to show TLE details & history

TLE from 9 hours ago
0 STARLINK-32615
1 62034U 24216C   24361.09013093 -.00002789  00000-0 -59535-4 0  9990
2 62034  43.0030 234.4084 0001866 268.1425  91.9218 15.40687891  6488
Epoch: 2024-12-26T02:09Z
Definitive object data (Epoch: 2024-12-26T02:09:47.312Z)
Latitude-0°
Longitude106.88675°
Altitude443.895 km
Speed7.648 km/s
True Right ascension15h 37m 38s
True Declination0° 00' 00"
Sunlit
Object was in daylight at TLE epoch
Visualization TLE readout
Latitude-24.50288°
Longitude-46.12827°
Altitude449.289 km
Speed7.644 km/s
Apparent Right ascension02h 26m 48s
Apparent Declination-46° 05' 14"
Sunlit
Object is in full shadow
Visualization observer readout
Local Sidereal Time10:14:07
Azimuth240.393° WSW
Elevation-44.613°
Doppler factor1
Orbital elements
Apogee altitude447.307 km
Perigee altitude444.76 km
Semi-major axis6,824.171 km
Eccentricity0.0001866
Inclination43.003°
RAAN234.4084°
Arg. of periapsis268.1425°
True anomaly91.94317°
Mean anomaly91.9218°
Eccentric anomaly91.93249°
Mean motion3.85007 °/min
BSTAR-0.000059535
Orbital period93.5 mins
Loading maneuver chart data...
Loading historical data...
Loading historical data...
Loading historical data...
Loading historical data...
Loading historical data...
Loading historical data...
Loading historical data...

STARLINK-32615 Visibility forecast

Observer location: undefined°, undefined

Span
Click to sort rows by Start time (UTC) header in descending order
Start Az.
Max El. time (UTC)
Max El. Az.
Max El.
End time (UTC)
End Az.
5 mins2024-12-26 19:30:51.678Z225.981° WSW2024-12-26 19:32:51.678Z165.89° S38.742°2024-12-26 19:35:51.678Z79.481° E
5 mins2024-12-26 21:08:51.678Z278.75° WNW2024-12-26 21:10:51.678Z332.822° NNW38.768°2024-12-26 21:13:51.678Z68.256° E
5 mins2024-12-26 22:47:51.678Z301.155° NW2024-12-26 22:49:51.678Z43.987° NE38.552°2024-12-26 22:52:51.678Z90.181° ESE
4 mins2024-12-27 00:25:51.678Z266.685° W2024-12-27 00:27:51.678Z185.029° SSW34.952°2024-12-27 00:29:51.678Z138.246° SSE
|